Total_Precipitation_Accumulation
0.04 0.03 0.00 0.00 0.00 0.00 0.00 0.00 0.00 0.00 0.00 0.00 0.00 0.00 0.00 0.00 0.00 0.00 0.03 0.02 0.02 0.03 0.04 0.04 0.03 0.01 0.00 0.00 0.02 0.06 0.10 0.12 0.17 0.24 0.20 0.16 0.11 0.05 0.02 0.02 0.03 0.02 0.00
0.06 0.05 0.01 0.00 0.00 0.00 0.00 0.00 0.00 0.00 0.00 0.00 0.00 0.00 0.00 0.00 0.00 0.00 0.02 0.04 0.02 0.02 0.03 0.04 0.04 0.03 0.02 0.02 0.03 0.09 0.11 0.13 0.14 0.20 0.24 0.26 0.27 0.19 0.14 0.11 0.09 0.06 0.01
0.08 0.07 0.02 0.00 0.00 0.00 0.00 0.00 0.00 0.00 0.00 0.00 0.00 0.00 0.00 0.00 0.00 0.00 0.00 0.03 0.05 0.02 0.03 0.06 0.07 0.06 0.06 0.06 0.04 0.06 0.09 0.11 0.15 0.19 0.24 0.25 0.26 0.27 0.25 0.18 0.12 0.07 0.03
0.07 0.09 0.04 0.01 0.00 0.00 0.00 0.00 0.00 0.00 0.00 0.00 0.01 0.00 0.00 0.00 0.00 0.00 0.00 0.01 0.04 0.05 0.06 0.07 0.11 0.12 0.12 0.09 0.06 0.06 0.08 0.10 0.13 0.16 0.16 0.12 0.10 0.11 0.11 0.11 0.09 0.06 0.03
0.07 0.11 0.13 0.04 0.01 0.00 0.00 0.00 0.00 0.00 0.00 0.01 0.01 0.01 0.01 0.00 0.00 0.00 0.00 0.00 0.01 0.01 0.05 0.05 0.05 0.08 0.13 0.16 0.10 0.05 0.05 0.07 0.08 0.08 0.05 0.03 0.02 0.03 0.04 0.05 0.05 0.03 0.02
0.20 0.24 0.30 0.21 0.10 0.07 0.06 0.04 0.03 0.02 0.01 0.01 0.00 0.00 0.01 0.00 0.00 0.00 0.00 0.00 0.01 0.00 0.00 0.01 0.03 0.03 0.05 0.12 0.17 0.07 0.04 0.04 0.03 0.03 0.02 0.01 0.01 0.01 0.01 0.02 0.03 0.03 0.02
0.26 0.35 0.45 0.42 0.34 0.26 0.20 0.16 0.16 0.19 0.11 0.02 0.03 0.03 0.02 0.00 0.00 0.00 0.00 0.00 0.00 0.00 0.00 0.00 0.02 0.06 0.09 0.10 0.12 0.06 0.05 0.05 0.05 0.05 0.02 0.00 0.00 0.00 0.00 0.00 0.01 0.02 0.03
0.23 0.29 0.39 0.38 0.30 0.28 0.22 0.17 0.23 0.33 0.25 0.09 0.10 0.15 0.11 0.08 0.03 0.00 0.00 0.00 0.00 0.00 0.00 0.00 0.00 0.02 0.06 0.12 0.05 0.01 0.02 0.03 0.04 0.02 0.01 0.00 0.00 0.00 0.00 0.00 0.00 0.01 0.01
0.36 0.33 0.34 0.35 0.29 0.32 0.30 0.22 0.20 0.26 0.26 0.17 0.11 0.20 0.20 0.18 0.15 0.04 0.01 0.01 0.01 0.00 0.00 0.00 0.01 0.01 0.01 0.03 0.02 0.00 0.00 0.01 0.02 0.01 0.01 0.00 0.00 0.00 0.00 0.01 0.01 0.03 0.03
0.70 0.60 0.50 0.48 0.35 0.28 0.25 0.20 0.17 0.19 0.24 0.22 0.16 0.12 0.12 0.13 0.19 0.17 0.07 0.01 0.01 0.01 0.00 0.00 0.00 0.02 0.02 0.00 0.00 0.00 0.00 0.00 0.01 0.00 0.00 0.00 0.01 0.01 0.01 0.02 0.02 0.02 0.02
1.37 1.13 0.88 0.62 0.43 0.36 0.33 0.31 0.28 0.24 0.23 0.21 0.16 0.10 0.07 0.10 0.08 0.14 0.17 0.11 0.05 0.02 0.01 0.00 0.00 0.00 0.01 0.00 0.00 0.00 0.00 0.00 0.00 0.00 0.00 0.00 0.02 0.02 0.01 0.01 0.01 0.01 0.01
1.41 1.23 1.00 0.69 0.44 0.35 0.36 0.41 0.39 0.34 0.29 0.23 0.15 0.11 0.12 0.11 0.10 0.16 0.17 0.24 0.26 0.10 0.02 0.02 0.01 0.00 0.00 0.00 0.00 0.00 0.00 0.00 0.00 0.00 0.00 0.00 0.01 0.01 0.01 0.00 0.00 0.00 0.00
0.93 0.89 0.81 0.66 0.48 0.38 0.36 0.41 0.42 0.39 0.31 0.22 0.14 0.12 0.15 0.17 0.23 0.27 0.20 0.21 0.26 0.18 0.08 0.04 0.05 0.04 0.01 0.01 0.00 0.00 0.00 0.00 0.00 0.00 0.00 0.00 0.00 0.01 0.02 0.01 0.00 0.00 0.00
0.71 0.69 0.73 0.66 0.52 0.40 0.35 0.34 0.35 0.32 0.26 0.20 0.16 0.14 0.13 0.12 0.20 0.22 0.21 0.23 0.19 0.20 0.17 0.07 0.05 0.07 0.05 0.02 0.01 0.01 0.00 0.01 0.00 0.00 0.00 0.00 0.00 0.01 0.01 0.01 0.00 0.00 0.00
0.44 0.51 0.63 0.66 0.58 0.45 0.35 0.32 0.34 0.30 0.24 0.20 0.16 0.13 0.13 0.13 0.15 0.21 0.29 0.26 0.20 0.18 0.20 0.16 0.11 0.06 0.07 0.05 0.03 0.01 0.00 0.01 0.00 0.00 0.00 0.00 0.00 0.00 0.00 0.00 0.00 0.00 0.00
0.43 0.47 0.47 0.46 0.42 0.38 0.34 0.32 0.32 0.30 0.24 0.20 0.16 0.13 0.12 0.13 0.15 0.18 0.24 0.28 0.26 0.22 0.21 0.20 0.17 0.13 0.15 0.13 0.13 0.07 0.03 0.01 0.00 0.00 0.00 0.00 0.00 0.00 0.00 0.00 0.00 0.00 0.00
0.27 0.31 0.29 0.26 0.31 0.35 0.28 0.26 0.24 0.24 0.21 0.16 0.11 0.09 0.07 0.07 0.10 0.12 0.16 0.21 0.23 0.24 0.17 0.20 0.17 0.15 0.21 0.22 0.22 0.16 0.11 0.07 0.06 0.02 0.01 0.00 0.00 0.00 0.00 0.00 0.00 0.00 0.00
0.14 0.20 0.20 0.18 0.25 0.34 0.33 0.33 0.31 0.25 0.20 0.15 0.09 0.07 0.05 0.05 0.05 0.04 0.07 0.12 0.19 0.22 0.17 0.15 0.16 0.15 0.18 0.22 0.26 0.25 0.21 0.17 0.13 0.14 0.12 0.05 0.02 0.01 0.01 0.00 0.00 0.00 0.00
0.10 0.13 0.15 0.17 0.21 0.28 0.35 0.35 0.33 0.24 0.18 0.13 0.09 0.07 0.04 0.03 0.03 0.04 0.06 0.10 0.15 0.18 0.21 0.16 0.16 0.18 0.16 0.16 0.20 0.20 0.22 0.24 0.23 0.24 0.29 0.19 0.11 0.07 0.05 0.03 0.02 0.02 0.01
0.11 0.10 0.09 0.12 0.20 0.30 0.36 0.37 0.34 0.27 0.20 0.14 0.12 0.08 0.04 0.04 0.05 0.07 0.11 0.19 0.24 0.30 0.30 0.25 0.23 0.24 0.22 0.19 0.17 0.21 0.26 0.29 0.30 0.26 0.26 0.27 0.23 0.15 0.11 0.10 0.10 0.08 0.05
0.11 0.07 0.04 0.07 0.15 0.20 0.24 0.35 0.32 0.24 0.21 0.15 0.12 0.12 0.08 0.05 0.03 0.03 0.04 0.10 0.15 0.25 0.31 0.31 0.31 0.32 0.29 0.23 0.19 0.24 0.26 0.32 0.32 0.28 0.25 0.24 0.25 0.21 0.20 0.17 0.15 0.14 0.13
0.09 0.07 0.05 0.04 0.07 0.08 0.13 0.19 0.24 0.27 0.28 0.22 0.16 0.15 0.13 0.07 0.03 0.02 0.01 0.01 0.03 0.07 0.14 0.18 0.22 0.27 0.32 0.34 0.33 0.32 0.32 0.31 0.33 0.35 0.31 0.34 0.32 0.27 0.26 0.20 0.17 0.21 0.22
0.03 0.03 0.03 0.04 0.03 0.03 0.03 0.05 0.14 0.26 0.34 0.28 0.19 0.17 0.18 0.13 0.09 0.07 0.06 0.04 0.04 0.04 0.03 0.06 0.13 0.20 0.23 0.25 0.27 0.30 0.30 0.30 0.32 0.33 0.24 0.21 0.21 0.18 0.21 0.20 0.18 0.21 0.25
0.02 0.02 0.04 0.06 0.03 0.01 0.00 0.01 0.05 0.17 0.26 0.25 0.20 0.20 0.24 0.20 0.15 0.13 0.11 0.11 0.10 0.10 0.06 0.03 0.07 0.12 0.11 0.15 0.19 0.23 0.22 0.16 0.14 0.10 0.08 0.09 0.11 0.12 0.13 0.12 0.12 0.11 0.13
0.01 0.02 0.02 0.04 0.03 0.02 0.01 0.01 0.03 0.10 0.16 0.17 0.16 0.19 0.24 0.27 0.24 0.17 0.09 0.11 0.15 0.14 0.11 0.08 0.06 0.05 0.03 0.03 0.08 0.15 0.20 0.19 0.14 0.13 0.10 0.07 0.08 0.08 0.08 0.09 0.08 0.07 0.07
0.01 0.01 0.00 0.00 0.00 0.00 0.00 0.00 0.00 0.01 0.02 0.04 0.05 0.10 0.17 0.16 0.16 0.12 0.08 0.18 0.28 0.16 0.12 0.16 0.15 0.12 0.11 0.12 0.17 0.18 0.21 0.24 0.25 0.27 0.26 0.21 0.18 0.15 0.15 0.12 0.07 0.05 0.05